User: anonymous
Location: Unspecified
(0.0000°N, 0.0000°E)
Time: 23:48:26
(UTC+00:00)
Language:

APRIZESAT 3 - Orbit

View from above orbital plane
View from above orbital plane
View from above satellite
View from above satellite

Ground track
Ground track

The orbit data is extracted from the following two-line orbital elements,

1 35686U 09041F   14244.81529221  .00000915  00000-0  10777-3 0  6084
2 35686 098.1545 193.0480 0077104 087.6242 305.1813 14.85325029275751
Epoch (UTC): 01 September 2014 19:34:01
Eccentricity: 0.0077104
inclination: 98.1545°
perigee height: 558 km
apogee height: 666 km
right ascension of ascending node: 193.0480°
argument of perigee: 87.6242°
revolutions per day: 14.85325029
mean anomaly at epoch: 305.1813°
orbit number at epoch: 27575

The dashed part of the orbit path shows where the satellite is in the earth's shadow,  

DLR